Duesseldorf, Germany

1:50 PM CEST on September 27, 2016 (GMT +0200)
Duesseldorf

Weather History for 10400 - June, 2013

Change the Weather History Date:

Wednesday, June 26, 2013

  Actual Average Record
Temperature  
Mean Temperature 52 °F -  
Max Temperature 63 °F - - ()
Min Temperature 40 °F - - ()
Degree Days  
Heating Degree Days 14    
Growing Degree Days 2 (Base 50)    
Moisture  
Dew Point 44 °F    
Average Humidity 70    
Maximum Humidity 100    
Minimum Humidity 39    
Precipitation  
Precipitation 0.04 in - - ()
Sea Level Pressure  
Sea Level Pressure 30.36 in    
Wind  
Wind Speed 5 mph ()    
Max Wind Speed 11 mph    
Max Gust Speed -    
Visibility 8.4 miles    
Events Fog    
T = Trace of Precipitation, MM = Missing Value Source: Averaged Metar Reports

Daily Weather History Graph

Daily Weather History Graph

Search for Another Location

Airport or City:

Trip Planner

Search our weather history database for the weather conditions in past years. The results will help you decide how hot, cold, wet, or windy it might be!

Date:

Astronomy

Jun. 26, 2013 Rise Set
Actual Time 5:18 AM CEST 9:53 PM CEST
Civil Twilight 4:31 AM CEST 10:40 PM CEST
Nautical Twilight 3:18 AM CEST 11:52 PM CEST
Astronomical Twilight 2:08 AM CEST 1:03 AM CEST
Moon 11:34 PM CEST (6/26) 9:17 AM CEST (6/26)
Length of Visible Light 18h 08m
Length of Day
16h 34m
Waning Gibbous, 87% of the Moon is Illuminated
Jun 26
Waning Gibbous
Jun 30
Last Quarter
Jul 8
New
Jul 16
First Quarter
Jul 22
Full

Hourly Weather History & Observations

Time (CEST) Temp. Windchill Dew Point Humidity Pressure Visibility Wind Dir Wind Speed Gust Speed Precip Events Conditions
12:00 AM 52 °F - 43 °F 64% 30.39 in 25 mi North 4.5 mph - -   Scattered Clouds
12:20 AM 51.8 °F - 42.8 °F 71% 30.39 in - NNW 5.8 mph - N/A   Clear
12:50 AM 50.0 °F - 42.8 °F 76% 30.39 in - NW 4.6 mph - N/A   Clear
1:00 AM 48 °F - 44 °F 81% 30.40 in 25 mi NNW 4.5 mph - -   Clear
1:20 AM 50.0 °F - 42.8 °F 76% 30.39 in - NNW 3.5 mph - N/A   Clear
1:50 AM 48.2 °F - 42.8 °F 82% 30.39 in - NW 2.3 mph - N/A   Clear
2:00 AM 46 °F - 43 °F 84% 30.39 in 25 mi NNW 2.2 mph - -   Clear
2:20 AM 46.4 °F 45.2 °F 42.8 °F 87% 30.39 in - WNW 3.5 mph - N/A   Clear
2:50 AM 44.6 °F - 41.0 °F 87% 30.36 in 6.2 mi WNW 2.3 mph - N/A Fog Shallow Fog
3:00 AM 43 °F - 41 °F 91% 30.39 in 25 mi WNW 2.2 mph - - Fog Patches of Fog
3:20 AM 44.6 °F 42.2 °F 41.0 °F 87% 30.36 in 6.2 mi WNW 4.6 mph - N/A Fog Shallow Fog
3:50 AM 42.8 °F 41.1 °F 41.0 °F 93% 30.36 in 6.2 mi WNW 3.5 mph - N/A Fog Shallow Fog
4:00 AM 42 °F - 41 °F 96% 30.39 in 19 mi NNW 2.2 mph - - Fog Shallow Fog
4:20 AM 42.8 °F 41.1 °F 39.2 °F 87% 30.36 in 6.2 mi WNW 3.5 mph - N/A Fog Shallow Fog
4:50 AM 42.8 °F - 39.2 °F 87% 30.36 in 6.2 mi NE 2.3 mph - N/A Fog Shallow Fog
5:20 AM 41.0 °F - 39.2 °F 93% 30.36 in 6.2 mi NNW 1.2 mph - N/A Fog Shallow Fog
5:50 AM 41.0 °F - 39.2 °F 93% 30.36 in 6.2 mi East 1.2 mph - N/A Fog Shallow Fog
6:00 AM 41 °F - 41 °F 98% 30.39 in 12 mi East 2.2 mph - - Fog Patches of Fog
6:20 AM 42.8 °F - 42.8 °F 100% 30.36 in 6.2 mi NE 1.2 mph - N/A   Mostly Cloudy
6:50 AM 46.4 °F - 44.6 °F 93% 30.36 in 6.2 mi Variable 1.2 mph - N/A   Mostly Cloudy
7:00 AM 46 °F - 46 °F 97% 30.39 in 19 mi Calm Calm - -   Mostly Cloudy
7:20 AM 46.4 °F - 46.4 °F 100% 30.36 in 6.2 mi Variable 1.2 mph - N/A   Mostly Cloudy
7:50 AM 50.0 °F - 46.4 °F 87% 30.39 in 6.2 mi West 2.3 mph - N/A   Mostly Cloudy
8:00 AM 49 °F - 47 °F 90% 30.39 in 16 mi West 2.2 mph - -   Mostly Cloudy
8:20 AM 50.0 °F - 46.4 °F 87% 30.39 in 6.2 mi West 4.6 mph - N/A   Mostly Cloudy
8:50 AM 51.8 °F - 48.2 °F 88% 30.39 in 6.2 mi West 4.6 mph - N/A   Mostly Cloudy
9:00 AM 52 °F - 47 °F 79% 30.40 in 16 mi West 4.5 mph - -   Mostly Cloudy
9:20 AM 53.6 °F - 48.2 °F 82% 30.39 in 6.2 mi West 5.8 mph - N/A   Mostly Cloudy
9:50 AM 53.6 °F - 48.2 °F 82% 30.39 in 6.2 mi West 3.5 mph - N/A   Mostly Cloudy
10:00 AM 54 °F - 48 °F 75% 30.40 in 16 mi West 2.2 mph - -   Mostly Cloudy
10:20 AM 55.4 °F - 48.2 °F 77% 30.39 in 6.2 mi West 6.9 mph - N/A   Scattered Clouds
10:50 AM 57.2 °F - 42.8 °F 59% 30.39 in 6.2 mi West 8.1 mph - N/A   Partly Cloudy
11:20 AM 57.2 °F - 41.0 °F 55% 30.39 in 6.2 mi WNW 8.1 mph - N/A   Mostly Cloudy
11:50 AM 57.2 °F - 41.0 °F 55% 30.39 in 6.2 mi West 9.2 mph - N/A   Mostly Cloudy
12:00 PM 57 °F - 41 °F 45% 30.39 in 28 mi West 8.9 mph - -   Mostly Cloudy
12:20 PM 57.2 °F - 42.8 °F 59% 30.39 in 6.2 mi WNW 6.9 mph - N/A   Mostly Cloudy
12:50 PM 59.0 °F - 44.6 °F 59% 30.36 in 6.2 mi West 8.1 mph - N/A   Mostly Cloudy
1:00 PM 59 °F - 43 °F 44% 30.39 in 25 mi West 8.9 mph - -   Mostly Cloudy
1:20 PM 60.8 °F - 44.6 °F 55% 30.36 in 6.2 mi West 5.8 mph - N/A   Mostly Cloudy
1:50 PM 60.8 °F - 42.8 °F 52% 30.39 in 6.2 mi WNW 8.1 mph - N/A   Mostly Cloudy
2:00 PM 60 °F - 41 °F 39% 30.39 in 28 mi WNW 8.9 mph - -   Mostly Cloudy
2:20 PM 60.8 °F - 46.4 °F 59% 30.36 in 6.2 mi WNW 8.1 mph - N/A   Mostly Cloudy
2:50 PM 60.8 °F - 42.8 °F 52% 30.36 in 6.2 mi West 10.4 mph - N/A   Mostly Cloudy
3:00 PM 61 °F - 43 °F 41% 30.38 in 28 mi West 8.9 mph - -   Mostly Cloudy
3:20 PM 60.8 °F - 42.8 °F 52% 30.36 in 6.2 mi NW 10.4 mph - N/A   Mostly Cloudy
3:50 PM 62.6 °F - 44.6 °F 52% 30.36 in 6.2 mi West 9.2 mph - N/A   Mostly Cloudy
4:00 PM 62 °F - 44 °F 41% 30.37 in 25 mi West 8.9 mph - -   Mostly Cloudy
4:20 PM 60.8 °F - 44.6 °F 55% 30.36 in 6.2 mi West 6.9 mph - N/A   Mostly Cloudy
4:50 PM 62.6 °F - 46.4 °F 55% 30.36 in 6.2 mi West 9.2 mph - N/A   Mostly Cloudy
5:20 PM 60.8 °F - 44.6 °F 55% 30.33 in 6.2 mi WNW 10.4 mph - N/A   Mostly Cloudy
5:50 PM 60.8 °F - 46.4 °F 59% 30.33 in 6.2 mi West 10.4 mph - N/A   Mostly Cloudy
6:00 PM 60 °F - 46 °F 50% 30.35 in 19 mi West 8.9 mph - -   Mostly Cloudy
6:20 PM 60.8 °F - 46.4 °F 59% 30.33 in 6.2 mi West 8.1 mph - N/A   Mostly Cloudy
6:50 PM 60.8 °F - 46.4 °F 59% 30.33 in 6.2 mi WNW 10.4 mph - N/A   Mostly Cloudy
7:00 PM 60 °F - 45 °F 46% 30.34 in 22 mi WNW 11.2 mph - -   Scattered Clouds
7:20 PM 60.8 °F - 46.4 °F 59% 30.33 in 6.2 mi WNW 9.2 mph - N/A   Mostly Cloudy
7:50 PM 60.8 °F - 46.4 °F 59% 30.33 in 6.2 mi West 6.9 mph - N/A   Mostly Cloudy
8:00 PM 60 °F - 47 °F 51% 30.33 in 19 mi West 6.7 mph - -   Scattered Clouds
8:20 PM 59.0 °F - 46.4 °F 63% 30.33 in 6.2 mi West 6.9 mph - N/A   Mostly Cloudy
8:50 PM 59.0 °F - 46.4 °F 63% 30.30 in 6.2 mi WSW 6.9 mph - N/A   Mostly Cloudy
9:00 PM 58 °F - 47 °F 57% 30.32 in 19 mi WSW 6.7 mph - -   Partly Cloudy
9:20 PM 57.2 °F - 46.4 °F 67% 30.30 in - SW 5.8 mph - N/A   Clear
9:50 PM 57.2 °F - 48.2 °F 72% 30.30 in 6.2 mi SW 5.8 mph - N/A   Mostly Cloudy
10:00 PM 56 °F - 48 °F 67% 30.31 in 19 mi SW 6.7 mph - -   Mostly Cloudy
10:20 PM 55.4 °F - 48.2 °F 77% 30.30 in 6.2 mi SW 5.8 mph - N/A   Mostly Cloudy
10:50 PM 55.4 °F - 48.2 °F 77% 30.27 in - SW 6.9 mph - N/A   Clear
11:20 PM 55.4 °F - 48.2 °F 77% 30.27 in - SW 6.9 mph - N/A   Clear
11:50 PM 55.4 °F - 48.2 °F 77% 30.27 in 6.2 mi SW 3.5 mph - N/A   Mostly Cloudy